Hourly Weather Busk

Today, 15 August, Saturday

Time Temperature Precipitation Wind Pressure Humidity
00:00 +14°C° 0 mm 3 mps 743 mmHg 82%
01:00 +14°C° 0 mm 3 mps 743 mmHg 82%
02:00 +15°C° 0 mm 4 mps 742 mmHg 84%
03:00 +16°C° 0 mm 3 mps 742 mmHg 81%
04:00 +14°C° 0 mm 3 mps 742 mmHg 78%
05:00 +14°C° 0 mm 3 mps 742 mmHg 76%
06:00 +16°C° 0 mm 3 mps 742 mmHg 75%
07:00 +17°C° 0 mm 4 mps 742 mmHg 74%
08:00 +18°C° 0 mm 4 mps 743 mmHg 74%
09:00 +19°C° 0 mm 4 mps 743 mmHg 71%
10:00 +21°C° 0 mm 5 mps 743 mmHg 68%
11:00 +22°C° 0 mm 5 mps 743 mmHg 65%
12:00 +22°C° 0 mm 5 mps 743 mmHg 64%
13:00 +23°C° 0 mm 5 mps 743 mmHg 63%
14:00 +25°C° 0 mm 4 mps 743 mmHg 64%
15:00 +25°C° 0 mm 4 mps 742 mmHg 66%
16:00 +23°C° 0 mm 4 mps 742 mmHg 68%
17:00 +23°C° 0 mm 4 mps 742 mmHg 70%
18:00 +22°C° 0 mm 4 mps 742 mmHg 74%
19:00 +20°C° 0 mm 4 mps 742 mmHg 78%
20:00 +19°C° 0 mm 3 mps 742 mmHg 82%
21:00 +18°C° 0 mm 4 mps 742 mmHg 81%
22:00 +18°C° 0 mm 4 mps 742 mmHg 79%
23:00 +17°C° 0 mm 4 mps 742 mmHg 77%

Tomorrow, 16 August, Sunday

Time Temperature Precipitation Wind Pressure Humidity
00:00 +17°C° 0 mm 4 mps 742 mmHg 73%
01:00 +17°C° 0 mm 4 mps 742 mmHg 68%
02:00 +17°C° 0 mm 4 mps 742 mmHg 64%
03:00 +17°C° 0 mm 4 mps 742 mmHg 64%
04:00 +16°C° 0 mm 3 mps 742 mmHg 64%
05:00 +16°C° 0 mm 3 mps 743 mmHg 64%
06:00 +17°C° 0 mm 3 mps 743 mmHg 66%
07:00 +17°C° 0 mm 3 mps 743 mmHg 67%
08:00 +18°C° 0 mm 4 mps 743 mmHg 68%
09:00 +20°C° 0 mm 4 mps 743 mmHg 66%
10:00 +21°C° 0 mm 4 mps 743 mmHg 64%
11:00 +23°C° 0 mm 4 mps 743 mmHg 62%
12:00 +25°C° 0 mm 4 mps 743 mmHg 61%
13:00 +26°C° 0 mm 4 mps 743 mmHg 59%
14:00 +27°C° 0 mm 4 mps 743 mmHg 58%
15:00 +26°C° 0 mm 4 mps 743 mmHg 60%
16:00 +26°C° 0 mm 4 mps 743 mmHg 63%
17:00 +26°C° 0 mm 4 mps 742 mmHg 65%
18:00 +24°C° 0 mm 3 mps 742 mmHg 70%
19:00 +21°C° 0 mm 3 mps 743 mmHg 75%
20:00 +20°C° 0 mm 3 mps 743 mmHg 79%
21:00 +19°C° 0 mm 3 mps 743 mmHg 78%
22:00 +18°C° 0 mm 3 mps 743 mmHg 77%
23:00 +18°C° 0 mm 3 mps 743 mmHg 76%

Day after tomorrow, 17 August, Monday

Time Temperature Precipitation Wind Pressure Humidity
00:00 +17°C° 0 mm 3 mps 743 mmHg 75%
01:00 +17°C° 0 mm 3 mps 742 mmHg 74%
02:00 +17°C° 0 mm 4 mps 742 mmHg 72%
03:00 +16°C° 0 mm 3 mps 742 mmHg 70%
04:00 +16°C° 0 mm 3 mps 742 mmHg 68%
05:00 +16°C° 0 mm 3 mps 742 mmHg 66%
06:00 +17°C° 0 mm 4 mps 742 mmHg 67%
07:00 +18°C° 0 mm 4 mps 742 mmHg 67%
08:00 +20°C° 0 mm 4 mps 742 mmHg 68%
09:00 +21°C° 0 mm 4 mps 742 mmHg 66%
10:00 +23°C° 0 mm 4 mps 742 mmHg 64%
11:00 +25°C° 0 mm 4 mps 742 mmHg 62%
12:00 +26°C° 0.1 mm 4 mps 741 mmHg 61%
13:00 +27°C° 0.1 mm 4 mps 741 mmHg 61%
14:00 +28°C° 0.1 mm 3 mps 741 mmHg 60%
15:00 +27°C° 0.9 mm 3 mps 740 mmHg 65%
16:00 +27°C° 0.9 mm 3 mps 740 mmHg 70%
17:00 +26°C° 0.9 mm 2 mps 740 mmHg 75%
18:00 +25°C° 0.3 mm 2 mps 740 mmHg 77%
19:00 +24°C° 0.3 mm 2 mps 739 mmHg 79%
20:00 +21°C° 0.3 mm 2 mps 739 mmHg 81%
21:00 +21°C° 0 mm 2 mps 739 mmHg 82%
22:00 +20°C° 0 mm 2 mps 739 mmHg 83%
23:00 +21°C° 0 mm 1 mps 739 mmHg 84%

18 August, Tuesday

Time Temperature Precipitation Wind Pressure Humidity
00:00 +20°C° 0 mm 2 mps 739 mmHg 84%
01:00 +19°C° 0 mm 2 mps 739 mmHg 85%
02:00 +19°C° 0 mm 2 mps 739 mmHg 85%
03:00 +19°C° 0.1 mm 2 mps 738 mmHg 86%
04:00 +19°C° 0.1 mm 2 mps 738 mmHg 87%
05:00 +18°C° 0.1 mm 2 mps 738 mmHg 88%
06:00 +20°C° 0.1 mm 2 mps 738 mmHg 85%
07:00 +21°C° 0.1 mm 2 mps 738 mmHg 83%
08:00 +22°C° 0.1 mm 3 mps 738 mmHg 80%
09:00 +25°C° 0.3 mm 3 mps 738 mmHg 74%
10:00 +27°C° 0.3 mm 3 mps 738 mmHg 67%
11:00 +28°C° 0.3 mm 3 mps 738 mmHg 61%
12:00 +29°C° 0.8 mm 3 mps 737 mmHg 60%
13:00 +29°C° 0.8 mm 3 mps 737 mmHg 59%
14:00 +29°C° 0.8 mm 3 mps 737 mmHg 58%
15:00 +29°C° 0.3 mm 3 mps 737 mmHg 61%
16:00 +29°C° 0.3 mm 3 mps 736 mmHg 63%
17:00 +29°C° 0.3 mm 3 mps 736 mmHg 66%
18:00 +27°C° 0.5 mm 2 mps 736 mmHg 71%
19:00 +25°C° 0.5 mm 2 mps 736 mmHg 75%
20:00 +23°C° 0.5 mm 2 mps 736 mmHg 80%
21:00 +23°C° 0.2 mm 2 mps 736 mmHg 82%
22:00 +21°C° 0.2 mm 2 mps 736 mmHg 83%
23:00 +20°C° 0.2 mm 2 mps 736 mmHg 85%

19 August, Wednesday

Time Temperature Precipitation Wind Pressure Humidity
00:00 +20°C° 0 mm 2 mps 736 mmHg 85%
01:00 +19°C° 0 mm 2 mps 735 mmHg 86%
02:00 +19°C° 0 mm 2 mps 735 mmHg 86%
03:00 +19°C° 0.5 mm 2 mps 735 mmHg 88%
04:00 +19°C° 0.5 mm 3 mps 735 mmHg 90%
05:00 +18°C° 0.5 mm 3 mps 735 mmHg 92%
06:00 +19°C° 0.1 mm 3 mps 735 mmHg 92%
07:00 +19°C° 0.1 mm 3 mps 736 mmHg 92%
08:00 +20°C° 0.1 mm 3 mps 736 mmHg 93%
09:00 +20°C° 0.2 mm 3 mps 736 mmHg 91%
10:00 +21°C° 0.2 mm 3 mps 736 mmHg 89%
11:00 +21°C° 0.2 mm 3 mps 737 mmHg 87%
12:00 +21°C° 0.9 mm 3 mps 737 mmHg 87%
13:00 +21°C° 0.9 mm 4 mps 737 mmHg 87%
14:00 +21°C° 0.9 mm 4 mps 737 mmHg 87%
15:00 +21°C° 0.2 mm 4 mps 737 mmHg 85%
16:00 +22°C° 0.2 mm 4 mps 736 mmHg 82%
17:00 +22°C° 0.2 mm 4 mps 736 mmHg 80%
18:00 +21°C° 0 mm 3 mps 736 mmHg 83%
19:00 +20°C° 0 mm 2 mps 737 mmHg 87%
20:00 +20°C° 0 mm 1 mps 737 mmHg 90%
21:00 +19°C° 0 mm 1 mps 737 mmHg 90%
22:00 +18°C° 0 mm 2 mps 737 mmHg 90%
23:00 +17°C° 0 mm 2 mps 737 mmHg 90%

20 August, Thursday

Time Temperature Precipitation Wind Pressure Humidity
00:00 +17°C° 0 mm 2 mps 737 mmHg 91%
01:00 +17°C° 0 mm 2 mps 737 mmHg 92%
02:00 +17°C° 0 mm 2 mps 737 mmHg 93%
03:00 +17°C° 0 mm 2 mps 737 mmHg 93%
04:00 +16°C° 0 mm 2 mps 737 mmHg 94%
05:00 +16°C° 0 mm 2 mps 737 mmHg 94%
06:00 +17°C° 0 mm 2 mps 737 mmHg 92%
07:00 +18°C° 0 mm 2 mps 737 mmHg 89%
08:00 +19°C° 0 mm 2 mps 738 mmHg 86%
09:00 +21°C° 0.1 mm 3 mps 738 mmHg 81%
10:00 +22°C° 0.1 mm 3 mps 738 mmHg 75%
11:00 +25°C° 0.1 mm 3 mps 739 mmHg 70%
12:00 +25°C° 0.2 mm 3 mps 738 mmHg 67%
13:00 +26°C° 0.2 mm 3 mps 738 mmHg 65%
14:00 +26°C° 0.2 mm 3 mps 738 mmHg 62%
15:00 +26°C° 0.4 mm 3 mps 739 mmHg 65%
16:00 +26°C° 0.4 mm 3 mps 739 mmHg 67%
17:00 +26°C° 0.4 mm 3 mps 739 mmHg 70%
18:00 +24°C° 0.1 mm 2 mps 739 mmHg 75%
19:00 +21°C° 0.1 mm 2 mps 739 mmHg 81%
20:00 +21°C° 0.1 mm 1 mps 740 mmHg 86%
21:00 +20°C° 0 mm 1 mps 740 mmHg 87%
22:00 +20°C° 0 mm 1 mps 740 mmHg 88%
23:00 +19°C° 0 mm 1 mps 741 mmHg 89%
Show more